FW0158 Weather Reports


time (UTC)temp
C
wind
direction
speed
KPH
gust
KPH
rain 1hr
cm
rain 24hr
cm
rain mn
cm
humidity
%
barometer
mb
20260906112216 23 350 3.2 8.0 0.00 0.00 0.05 87 1013.8
20260906110216 23 25 4.8 11.3 0.00 0.00 0.00 85 1014.2
20260906105536 23 13 3.2 11.3 0.00 0.00 0.00 85 1014.2
20260906105108 24 19 4.8 9.7 0.00 0.00 0.00 85 1014.2
20260906103537 24 108 3.2 6.4 0.00 0.00 0.00 83 1013.8
20260906102216 24 123 3.2 8.0 0.00 0.00 0.00 83 1013.8
20260906100857 24 134 3.2 14.5 0.00 0.00 0.00 84 1013.8
20260906100216 24 100 4.8 16.1 0.00 0.00 0.00 84 1013.8
20260906100002 25 104 6.4 14.5 0.00 0.00 0.00 84 1013.8
20260906094216 25 74 4.8 12.9 0.00 0.00 0.00 86 1013.8
20260906093535 25 98 3.2 6.4 0.00 0.00 0.00 87 1013.5
20260906092856 25 128 1.6 8.0 0.00 0.00 0.00 86 1013.1
20260906091747 25 136 3.2 11.3 0.00 0.00 0.00 86 1013.1
20260906091108 25 138 3.2 11.3 0.00 0.00 0.00 86 1013.1
20260906090215 25 127 4.8 11.3 0.00 0.00 0.00 87 1013.1
20260906085536 25 141 3.2 11.3 0.00 0.00 0.00 88 1013.1
20260906085105 25 121 6.4 11.3 0.00 0.00 0.00 88 1013.1
20260906084215 25 129 4.8 8.0 0.00 0.00 0.00 87 1013.1
20260906083746 25 140 3.2 11.3 0.00 0.00 0.00 88 1012.8
20260906083107 25 138 4.8 11.3 0.00 0.00 0.00 88 1012.8
20260906081109 25 107 6.4 12.9 0.00 0.00 0.00 94 1012.8
20260906080215 24 114 4.8 11.3 0.00 0.00 0.00 95 1012.4
20260906075745 25 121 1.6 6.4 0.00 0.00 0.00 94 1012.4
20260906075105 24 130 1.6 4.8 0.00 0.00 0.00 95 1012.4
20260906074426 24 17 1.6 3.2 0.00 0.00 0.00 96 1012.4
20260906073747 24 26 1.6 6.4 0.00 0.00 0.00 94 1012.4
20260906072428 25 45 1.6 6.4 0.00 0.00 0.00 92 1012.4
20260906071537 25 127 1.6 4.8 0.00 0.00 0.00 93 1012.4
20260906071323 25 137 1.6 6.4 0.00 0.00 0.00 92 1012.4
20260906070643 25 128 3.2 6.4 0.00 0.00 0.00 93 1012.4
20260906065959 25 97 1.6 3.2 0.00 0.00 0.00 93 1012.4
20260906063108 25 224 1.6 3.2 0.00 0.00 0.00 89 1012.4
20260906061536 25 205 1.6 3.2 0.00 0.00 0.00 90 1012.4
20260906060431 25 245 1.6 9.7 0.00 0.00 0.00 91 1012.1
20260906055746 25 42 1.6 3.2 0.00 0.00 0.00 90 1012.1
20260906055107 25 333 1.6 4.8 0.00 0.00 0.00 90 1012.1
20260906054427 25 315 3.2 4.8 0.00 0.00 0.00 91 1012.1
20260906053536 25 6 1.6 3.2 0.00 0.00 0.00 90 1012.1
20260906052217 26 348 1.6 3.2 0.00 0.00 0.00 89 1012.4
20260906051319 26 57 1.6 1.6 0.00 0.00 0.00 88 1012.4
20260906050853 26 35 0.0 3.2 0.00 0.00 0.00 87 1012.4
20260906045321 26 359 1.6 4.8 0.00 0.00 0.00 86 1012.4
20260906044641 26 118 1.6 8.0 0.00 0.00 0.00 88 1012.8
20260906043536 26 22 1.6 9.7 0.00 0.00 0.00 88 1012.8
20260906043323 26 105 0.0 3.2 0.00 0.00 0.00 87 1012.8
20260906041959 27 121 1.6 3.2 0.00 0.00 0.00 85 1012.4
20260906041106 27 11 0.0 1.6 0.00 0.00 0.00 84 1012.8
20260906040216 27 101 0.0 3.2 0.00 0.00 0.00 85 1012.4
20260906035748 27 12 1.6 3.2 0.00 0.00 0.00 85 1012.4
20260906034216 27 110 1.6 4.8 0.00 0.00 0.00 84 1012.4
20260906033110 27 46 1.6 3.2 0.00 0.00 0.00 83 1012.4
20260906032426 27 34 1.6 3.2 0.00 0.00 0.00 82 1012.4
20260906031536 27 42 1.6 3.2 0.00 0.00 0.00 81 1012.4
20260906030856 28 81 1.6 3.2 0.00 0.00 0.00 79 1012.4
20260906030428 28 148 1.6 3.2 0.00 0.00 0.00 78 1012.4
20260906025536 28 132 1.6 3.2 0.00 0.00 0.00 79 1012.4
20260906025109 28 47 1.6 3.2 0.00 0.00 0.00 79 1012.4
20260906023750 28 11 1.6 3.2 0.00 0.00 0.00 78 1012.1
20260906022640 28 19 1.6 3.2 0.00 0.00 0.00 77 1011.8
20260906021536 28 48 0.0 3.2 0.00 0.00 0.00 76 1011.8
20260906021108 28 55 1.6 3.2 0.00 0.00 0.00 75 1011.8
20260906020217 29 36 1.6 1.6 0.00 0.00 0.00 73 1011.8
20260906015749 29 58 0.0 3.2 0.00 0.00 0.00 72 1011.4
20260906014857 30 301 1.6 3.2 0.00 0.00 0.00 69 1011.4
20260906014425 30 299 1.6 3.2 0.00 0.00 0.00 69 1011.4
20260906012857 30 257 1.6 1.6 0.00 0.00 0.00 67 1011.4
20260906012640 30 255 1.6 1.6 0.00 0.00 0.00 66 1011.4
20260906011536 31 299 1.6 1.6 0.00 0.00 0.00 66 1011.4
20260906011109 31 222 0.0 1.6 0.00 0.00 0.00 65 1011.4
20260906005537 31 118 1.6 4.8 0.00 0.00 0.00 63 1011.4
20260906004426 32 302 0.0 1.6 0.00 0.00 0.00 58 1011.1
20260906003536 32 5 1.6 1.6 0.00 0.00 0.00 57 1011.1
20260906002216 33 31 0.0 1.6 0.00 0.00 0.00 54 1011.1
20260906000219 34 39 0.0 3.2 0.00 0.00 0.00 50 1011.4
20260905235745 35 14 1.6 3.2 0.00 0.00 0.00 48 1011.4
20260905235106 35 11 1.6 3.2 0.00 0.00 0.00 46 1011.4
20260905233536 36 23 1.6 6.4 0.00 0.00 0.00 45 1011.4
20260905232216 36 17 1.6 6.4 0.00 0.00 0.00 43 1011.4
20260905231536 36 84 3.2 6.4 0.00 0.00 0.00 43 1011.1
20260905230857 36 143 1.6 6.4 0.00 0.00 0.00 42 1011.1
20260905225959 37 106 3.2 8.0 0.00 0.00 0.00 42 1011.1
20260905225533 37 71 1.6 12.9 0.00 0.00 0.00 42 1011.1
20260905223748 37 106 4.8 8.0 0.00 0.00 0.00 40 1011.4
20260905223109 37 114 3.2 8.0 0.00 0.00 0.00 40 1011.4
20260905222429 37 69 3.2 11.3 0.00 0.00 0.00 39 1011.1
20260905222003 37 53 3.2 11.3 0.00 0.00 0.00 40 1011.4
20260905221111 37 127 3.2 8.0 0.00 0.00 0.00 38 1011.4
20260905220217 38 90 3.2 8.0 0.00 0.00 0.00 39 1011.4
20260905214856 37 85 3.2 11.3 0.00 0.00 0.00 40 1011.4
20260905214428 38 41 1.6 8.0 0.00 0.00 0.00 38 1011.4
20260905213535 37 58 3.2 9.7 0.00 0.00 0.00 39 1011.4
20260905212215 37 28 3.2 9.7 0.00 0.00 0.00 41 1011.4
20260905210215 36 339 3.2 4.8 0.00 0.00 0.00 41 1011.4
20260905205535 36 215 1.6 6.4 0.00 0.00 0.00 41 1011.4
20260905204214 36 12 4.8 16.1 0.00 0.00 0.00 41 1011.8
20260905203534 37 218 3.2 12.9 0.00 0.00 0.00 41 1011.8
20260905202214 37 145 1.6 9.7 0.00 0.00 0.00 39 1012.1
20260905201320 37 83 4.8 12.9 0.00 0.00 0.00 40 1012.1
20260905200428 38 36 3.2 12.9 0.00 0.00 0.00 39 1012.1
20260905194424 37 150 8.0 14.5 0.00 0.00 0.00 38 1012.8
20260905193534 37 147 6.4 16.1 0.00 0.00 0.00 38 1012.8
20260905193106 36 117 6.4 17.7 0.00 0.00 0.00 41 1012.8
20260905192426 38 157 6.4 16.1 0.00 0.00 0.00 37 1012.8
20260905191321 37 160 6.4 12.9 0.00 0.00 0.00 39 1013.5
20260905190636 38 9 4.8 12.9 0.00 0.00 0.00 38 1013.5
20260905185105 37 301 3.2 16.1 0.00 0.00 0.00 39 1013.5
20260905183746 37 93 3.2 11.3 0.00 0.00 0.00 39 1013.5
20260905183106 37 62 4.8 12.9 0.00 0.00 0.00 40 1013.8
20260905180214 37 131 3.2 9.7 0.00 0.00 0.00 39 1013.8
20260905175534 37 2 4.8 11.3 0.00 0.00 0.00 38 1013.8
20260905174854 37 180 3.2 11.3 0.00 0.00 0.00 38 1013.8
20260905173534 37 24 4.8 9.7 0.00 0.00 0.00 40 1014.2
20260905172641 36 173 3.2 12.9 0.00 0.00 0.00 44 1014.2
20260905171535 37 173 3.2 11.3 0.00 0.00 0.00 40 1014.2
20260905171317 36 104 3.2 11.3 0.00 0.00 0.00 44 1014.2
20260905165535 36 197 4.8 11.3 0.00 0.00 0.00 44 1014.5
20260905164854 35 122 4.8 11.3 0.00 0.00 0.00 47 1014.5
20260905164639 35 179 6.4 14.5 0.00 0.00 0.00 47 1014.5
20260905163535 36 71 1.6 11.3 0.00 0.00 0.00 45 1014.9
20260905162214 35 299 1.6 11.3 0.00 0.00 0.00 48 1014.9
20260905161744 35 17 3.2 9.7 0.00 0.00 0.00 47 1014.9
20260905160854 36 62 3.2 6.4 0.00 0.00 0.00 46 1014.9
20260905160214 35 155 3.2 9.7 0.00 0.00 0.00 48 1015.2
20260905155534 35 160 3.2 12.9 0.00 0.00 0.00 48 1015.2
20260905154854 34 111 4.8 12.9 0.00 0.00 0.00 48 1015.2
20260905154001 33 16 3.2 9.7 0.00 0.00 0.00 53 1015.2
20260905153103 32 344 4.8 9.7 0.00 0.00 0.00 55 1015.2
20260905152215 32 354 4.8 8.0 0.00 0.00 0.00 54 1015.2
20260905150215 32 344 3.2 8.0 0.00 0.00 0.00 56 1015.2
20260905145534 32 352 3.2 8.0 0.00 0.00 0.00 57 1015.2
20260905144854 32 213 1.6 6.4 0.00 0.00 0.00 61 1015.2
20260905144641 31 127 3.2 6.4 0.00 0.00 0.00 61 1015.2
20260905143748 32 138 3.2 4.8 0.00 0.00 0.00 59 1015.2
20260905143104 31 4 3.2 4.8 0.00 0.00 0.00 59 1015.6
20260905142425 31 332 3.2 4.8 0.00 0.00 0.00 61 1015.6
20260905141535 31 327 1.6 6.4 0.00 0.00 0.00 64 1015.6
20260905140855 30 29 1.6 3.2 0.00 0.00 0.00 64 1015.2
20260905135747 29 338 1.6 3.2 0.00 0.00 0.00 69 1015.6
20260905134855 29 81 0.0 1.6 0.00 0.00 0.00 72 1015.2
20260905133744 27 348 1.6 3.2 0.00 0.00 0.00 77 1015.6
20260905131746 26 300 1.6 3.2 0.00 0.00 0.00 81 1015.6
20260905130854 26 297 0.0 3.2 0.00 0.00 0.00 80 1015.6
20260905130215 26 43 0.0 3.2 0.00 0.00 0.00 81 1015.6
20260905125534 26 99 1.6 3.2 0.00 0.00 0.00 82 1015.6
20260905125109 25 86 0.0 3.2 0.00 0.00 0.00 86 1015.6
20260905124214 24 41 1.6 4.8 0.00 0.00 0.00 88 1015.6
20260905123534 24 62 1.6 6.4 0.00 0.00 0.00 90 1015.6
20260905123106 23 24 1.6 6.4 0.00 0.00 0.00 93 1015.6
20260905122639 23 23 3.2 4.8 0.00 0.00 0.00 93 1015.6
20260905121534 23 50 1.6 3.2 0.00 0.00 0.00 94 1015.2
20260905121321 22 88 1.6 6.4 0.00 0.00 0.00 97 1015.2
20260905115317 22 288 1.6 1.6 0.00 0.00 0.00 99 1015.2
20260905114638 22 303 0.0 3.2 0.00 0.00 0.00 100 1015.2